Flag for Germany Weather past 2 weeks in Coburg, Bavaria, Germany

Now
58 °F

Overcast.


Feels Like: 58 °F
Forecast: 48 / 65 °F
Wind: 3 mph from Southeast

Location: Bamberg

Current Time: Sep 3, 2015 at 5:23:10 AM

Latest Report: Sep 3, 2015 at 5:00 AM


Visibility: 8 mi

Pressure: 29.96 "Hg

Humidity: 90%

Dew point: 55 °F

Location of CoburgLocation

Historic Weather in Coburg — Graph

°F

Coburg temperature yesterday

Maximum temperature yesterday: 70 °F (at 4:00 PM)
Minimum temperature yesterday: 49 °F (at 7:00 AM)
Average temperature yesterday: 61 °F

Past Weeks' High & Low Weather Summary

 TemperatureHumidityPressure
High94 °F (Aug 30, 6:00 PM)100% (Aug 19, 4:00 AM)30.29 "Hg (Aug 19, 4:00 AM)
Low45 °F (Aug 22, 6:00 AM)29% (Aug 30, 6:00 PM)29.68 "Hg (Aug 24, 4:00 PM)
Average66 °F73%30.02 "Hg
* Reported Aug 19 4:00 AM — Sep 3 4:00 AM, Coburg, Weather by CustomWeather, © 2015

Note: Actual official high and low records may vary slightly from our data, if they occured in-between our weather recording intervals... More about our weather records

Advertising

Coburg weather history for previous 24 hours

 ConditionsComfort  
Time TempWeatherWind HumidityBarometerVisibility
4:00 AM
Thu, Sep 3
57 °FOvercast.2 mph91%29.96 "Hg13 mi
3:00 AM56 °FOvercast.1 mph94%29.98 "Hg19 mi
2:00 AM53 °FPassing clouds.No wind96%29.99 "Hg11 mi
1:00 AM55 °FOvercast.1 mph94%29.99 "Hg16 mi
11:00 PM
Wed, Sep 2
58 °FOvercast.1 mph89%29.99 "Hg28 mi
10:00 PM58 °FOvercast.1 mph84%30.00 "Hg34 mi
9:00 PM60 °FOvercast.1 mph82%30.00 "Hg34 mi
8:00 PM64 °FOvercast.1 mph76%29.98 "Hg40 mi
7:00 PM67 °FOvercast.1 mph54%29.97 "Hg43 mi
6:00 PM69 °FOvercast.1 mph49%29.97 "Hg43 mi
5:00 PM69 °FScattered clouds.1 mph47%29.98 "Hg43 mi
4:00 PM70 °FOvercast.1 mph51%29.99 "Hg40 mi
3:00 PM66 °FOvercast.1 mph52%30.01 "Hg25 mi
2:00 PM66 °FOvercast.2 mph55%30.01 "Hg37 mi
1:00 PM67 °FScattered clouds.2 mph52%30.03 "Hg31 mi
12:00 PM65 °FOvercast.2 mph64%30.04 "Hg25 mi
11:00 AM62 °FPassing clouds.2 mph67%30.06 "Hg31 mi
10:00 AM60 °FPassing clouds.1 mph77%30.07 "Hg22 mi
9:00 AM57 °FSunny.2 mph83%30.07 "Hg17 mi
8:00 AM53 °FSunny.1 mph95%30.08 "Hg11 mi
7:00 AM49 °FSunny.1 mph99%30.07 "Hg6 mi
5:00 AM51 °FClear.2 mph97%30.07 "Hg8 mi
Weather by CustomWeather, © 2015

See weather overviewHow to use our weather pages